sat.trackr.live / text

‹ back to catalog

HULIANWANG DIGUI-03

NORAD 62325 · 2024-240C

PAYLOAD ACTIVE UNKNOWN

§ Identity

Operator
Country
PRC
Launch date
2024-12-16
Launch site
WSC
Launch vehicle
Mass (kg)
RCS (m²)

External: N2YO · Heavens-Above · Gunter

§ Orbital elements

Epoch: 2026-09-22T21:37:47.357184Z

Period
108.73 min
Inclination
86.4962°
Eccentricity
0.0001623
Mean motion
13.24412995 rev/d
Perigee alt
1,166.7 km
Apogee alt
1,169.1 km
Semi-major
7,546.0 km
B*
5.6977e-5
RAAN
310.1731°
Arg perigee
91.6607°
Mean anomaly
268.4713°
Rev number
8,557

§ Raw data

HULIANWANG DIGUI-031 62325U 24240C   26265.90124256  .00000039  00000+0  56977-4 0  99992 62325  86.4962 310.1731 0001623  91.6607 268.4713 13.24412995 85578

JSON: /api/v1/satellites/62325 · /tle

For live sub-satellite position, see the globe view (requires WebGL).

§ Visibility from observer

Set your observer location to see the next 7 days of passes ≥ 10°. The values pass through the URL so the page stays shareable.

No JS? Fill the form by hand. The geolocation button needs JavaScript.